Flag for U.S.A. Weather past 2 weeks in Baton Rouge, Louisiana, U.S.A.

Now
93 °F

Scattered clouds.


Feels Like: 100 °F
Forecast: 75 / 94 °F
Wind: 3 mph from North

Location: Baton Rouge Metropolitan - Ryan Field

Current Time: Aug 22, 2014 at 2:51:14 PM

Latest Report: Aug 22, 2014 at 1:53 PM


Visibility: 10 mi

Pressure: 30.09 "Hg

Humidity: 49%

Dew point: 71 °F

Location of Baton RougeLocation

Historic Weather in Baton Rouge — Graph

°F

Baton Rouge temperature yesterday

Maximum temperature yesterday: 93 °F (at 1:53 PM)
Minimum temperature yesterday: 74 °F (at 2:53 AM)
Average temperature yesterday: 80 °F

Past Weeks' High & Low Weather Summary

 TemperatureHumidityPressure
High95 °F (Aug 20, 1:53 PM)97% (Aug 11, 2:53 AM)30.14 "Hg (Aug 11, 2:53 AM)
Low65 °F (Aug 15, 6:53 AM)41% (Aug 14, 4:53 PM)29.89 "Hg (Aug 12, 6:53 PM)
Average81 °F76%30.00 "Hg
* Reported Aug 7 1:53 PM — Aug 22 1:00 PM, Baton Rouge, Weather by CustomWeather, © 2014

Note: Actual official high and low records may vary slightly from our data, if they occured in-between our weather recording intervals... More about our weather records

Advertising

Baton Rouge weather history for previous 24 hours

 ConditionsComfort  
Time TempWeatherWind HumidityBarometerVisibility
1:00 PM
Aug 22
91 °FScattered clouds.3 mph54%30.10 "Hg10 mi
11:53 AM88 °FPartly sunny.No wind59%30.12 "Hg10 mi
10:53 AM87 °FScattered clouds.6 mph72%30.13 "Hg10 mi
9:53 AM83 °FSunny.No wind82%30.12 "Hg10 mi
8:53 AM80 °FScattered clouds.3 mph87%30.12 "Hg10 mi
7:53 AM77 °FFog.No wind90%30.11 "Hg6 mi
6:53 AM74 °FFog.No wind97%30.10 "Hg4 mi
5:53 AM74 °FFog.No wind94%30.10 "Hg6 mi
4:53 AM75 °FFog.No wind94%30.09 "Hg6 mi
3:53 AM75 °FFog.No wind94%30.08 "Hg6 mi
2:53 AM74 °FFog.No wind97%30.07 "Hg5 mi
1:53 AM74 °FFog.No wind97%30.07 "Hg5 mi
12:53 AM75 °FFog.3 mph94%30.08 "Hg5 mi
11:53 PM
Aug 21
76 °FClear.No wind94%30.10 "Hg8 mi
10:53 PM76 °FClear.No wind94%30.10 "Hg7 mi
9:53 PM76 °FClear.No wind94%30.10 "Hg9 mi
8:53 PM77 °FClear.3 mph94%30.11 "Hg10 mi
7:53 PM78 °FPassing clouds.6 mph90%30.11 "Hg10 mi
6:53 PM79 °FSunny.No wind88%30.10 "Hg10 mi
5:53 PM79 °FSunny.No wind90%30.11 "Hg8 mi
4:53 PM77 °FPartly sunny.No wind94%30.09 "Hg10 mi
3:53 PM84 °FThunderstorms. Broken clouds.13 mph72%30.10 "Hg10 mi
3:04 PM89 °FThunderstorms. Broken clouds.5 mph61%30.09 "Hg10 mi
2:53 PM90 °FBroken clouds.6 mph63%30.09 "Hg10 mi
Weather by CustomWeather, © 2014

See weather overviewHow to use our weather pages